Simultaneous Nadir Overpasses (SNOs) Predictions

Prediction of SNOs between GOES-16 and AQUA Satellite Orbit:

Table of predicted SNOs for the next 14.0 days since TLE Epoch: 12/21/2024
Index Date Time (GOES-16) GOES-16 Lat,Lon AQUA Lat,Lon Distance(km) Time Diff (sec)
1 12/21/2024 07:08:35 -0.02, -75.18 -0.88, -71.22 451.56 80
2 12/21/2024 19:28:16 0.02, -75.19 -0.14, -75.98 88.84 80
3 12/23/2024 19:12:06 0.01, -75.21 0.83, -71.36 437.26 80
4 12/24/2024 07:31:39 -0.01, -75.21 0.15, -76.10 100.11 80
5 12/26/2024 07:10:07 -0.00, -75.23 -0.78, -71.47 427.08 80
6 12/26/2024 19:29:48 -0.00, -75.24 -0.20, -76.23 113.08 80
7 12/28/2024 19:13:36 -0.01, -75.26 0.81, -71.62 414.87 80
8 12/29/2024 07:33:06 0.00, -75.27 0.26, -76.33 121.72 80
9 12/31/2024 07:11:34 0.00, -75.29 -0.77, -71.71 406.64 80
10 12/31/2024 19:31:13 0.00, -75.29 -0.23, -76.47 133.48 80
11 01/02/2025 19:14:58 0.00, -75.32 0.74, -71.84 396.31 80
12 01/03/2025 07:34:29 -0.00, -75.34 0.28, -76.56 139.27 80
